STARLINK-34311, 64206

Orbit data source: Space-Track

STARLINK-34311, 64206 is a payload satellite owned by SpaceX/Seattle (US) in LEO that was launched on Sat, 31 May 2025 UTC via an FALCON 9 launch vehicle from the Air Force Western Test Range (AFWTR). Payload-class satellites include a variety of spacecraft equipped with specific instruments for various scientific and technological missions. These include communications satellites like Starlink; space stations such as the ISS; scientific satellites like the Hubble; Earth observation satellites from companies like Planet Labs, Umbra, and HawkEye 360; GPS; miniature CubeSats for education and research; and military/defense satellites.

Loading next visibility...
Identifier
64206, 2025-117D
Orbit
LEO
Country
Flag of USUS
Related business
Manufacturer
SpaceX/Seattle
Mission
Operational Commercial Communications
Bus & Motor
STARLINK V2MO, Unknown motor
Mass
575 kg wet, ~530 kg dry
Launch date (UTC)
2025-05-31 (1 year ago)
Launch vehicle
FALCON 9
Launch site
Air Force Western Test Range (AFWTR)
Object type
Payload
Rocket body
Debris
Shape & HBR
Box + 1 Pan, 17.7 m
Radar Cross Section
41.120 m², Large (>1 m²)

Expand to show TLE details & history
Last TLE update: 13 hours ago

TLE from 13 hours ago
0 STARLINK-34311
1 64206U 25117D   26235.73820981  .00021129  00000-0  63456-3 0  9992
2 64206  53.1609 341.4126 0001243  76.2101 283.9040 15.34408011 70169
Epoch: 2026-08-23T17:43Z
TLE epoch observation values (Epoch: 2026-08-23T17:43:01.327Z)
Latitude
-0.00002°
Longitude
103.6271°
Altitude
463.377 km
Speed
7.636 km/s
True Right ascension
22h 45m 39s
True Declination
0° 00' 00"
Sunlit
Object was in full shadow at epoch
Visualization orbit readout
Latitude
Unknown
Longitude
Unknown
Altitude
Unknown
Speed
Unknown
Apparent Right ascension
Unknown
Apparent Declination
Unknown
Sunlit
N/A
Visualization observer readout
Local Sidereal Time
21:43:37
Azimuth
Unknown
Elevation
Unknown
Doppler factor
Unknown
Orbital elements
Apogee altitude
463.787 km
Perigee altitude
462.086 km
Semi-major axis
6,841.073 km
Eccentricity
0.00012
Inclination
53.1609°
RAAN
341.4126°
Arg. of periapsis
76.2101°
True anomaly
283.89017°
Mean anomaly
283.904°
Eccentric anomaly
283.89709°
Mean motion
3.83581 °/min
Orbital period
93.85 mins
BSTAR
0.00063456
Loading maneuver chart data...
Computing Atmospheric mass density...
Loading historical data...
Loading historical data...
Loading historical data...
Loading historical data...
Loading historical data...
Loading historical data...
Loading historical data...

Documentation

Showing up to 5 results
|